Regional Weather Roundup
Issued by NWS

Home | Current Version | Previous Version | Text Only | Print | Product List | Glossary On
Versions: 1 2 3 4 5 6 7 8 9 10 11 12 13 14 15 16 17 18 19 20 21 22 23 24 25 26 27 28 29 30 31 32 33 34 35 36 37 38 39 40 41 42 43 44 45 46 47 48 49 50
000
ASUS43 KLMK 201402
RWRKY
KENTUCKY REGIONAL WEATHER ROUNDUP
NATIONAL WEATHER SERVICE LOUISVILLE KY
1000 AM EDT SUN AUG 20 2017

NOTE "FAIR" INDICATES FEW OR NO CLOUDS BELOW 12,000 FEET
WITH NO SIGNIFICANT WEATHER AND/OR OBSTRUCTIONS TO VISIBILITY.

KYZ001>023-026-027-061>063-070>075-201500-
WESTERN AND SOUTH CENTRAL KENTUCKY

CITY           SKY/WX    TMP DP  RH WIND       PRES   REMARKS
PADUCAH        SUNNY     81  72  74 CALM      30.06R
HENDERSON      CLOUDY    77  73  87 CALM      30.07R
OWENSBORO      PTSUNNY   76  72  87 N3        30.08R
HOPKINSVILLE   SUNNY     80  73  79 E3        30.08R
BOWLING GREEN  SUNNY     80  73  79 VRB3      30.09S
GLASGOW        SUNNY     78  70  74 CALM      30.11S
$$

KYZ024-025-028>034-038-045-046-053-201500-
NORTH CENTRAL KENTUCKY

CITY           SKY/WX    TMP DP  RH WIND       PRES   REMARKS
LOUISVILLE/SDF MOSUNNY   80  70  71 SE3       30.07F
LOUISVILLE/LOU SUNNY     80  73  79 S3        30.08F
FORT KNOX      SUNNY     80  70  71 S5        30.07S
$$

KYZ035>037-039>044-047>052-055>060-089>105-201500-
NORTHEAST KENTUCKY

CITY           SKY/WX    TMP DP  RH WIND       PRES   REMARKS
LEXINGTON      SUNNY     79  67  66 S5        30.12R
COVINGTON      SUNNY     78  71  79 S7        30.09S
FRANKFORT      SUNNY     80  69  69 CALM      30.10R
$$

KYZ054-064>069-076>088-106>120-201500-
SOUTHEAST KENTUCKY

CITY           SKY/WX    TMP DP  RH WIND       PRES   REMARKS
JACKSON        SUNNY     75  68  78 CALM      30.15R
LONDON         SUNNY     76  68  76 CALM      30.15R
SOMERSET       NOT AVBL
MIDDLESBORO    CLOUDY    68  67  98 CALM      30.17R
MONTICELLO     SUNNY     77  71  82 VRB3      30.15R
$$





USA.gov is the U.S. government's official web portal to all federal, state and local government web resources and services.